[[{"header":{"parameterUnit":"m.s-1","parameterCategory":2,"la1":30.2991,"la2":30.254,"lo1":-89.0895,"lo2":-89.0444,"dy":0.0017,"dx":0.0017,"nx":28,"ny":28,"refTime":"2023-08-09T03:00:00:Z","depth":"0","parameterNumber":2,"parameterNumberName":"U-component_of_CURRENTS"},"data":[0,0,0,0,0,0,0,0,0,0,0,0,0,0,0,0,0,0,0,0,0,0,0,0,0,0,0,0,0,0,0,0,0,0,0,0,0,0,0,0,0,0,0,0,0,0,0,0,0,0,0,0,0,0,0,0,0,0,0.4028,0.4027,0,0.3999,0.3998,0.3998,0.3988,0.3988,0.3989,0.3989,0.3983,0.3983,0.3982,0,0,0,0,0,0,0,0,0,0,0,0,0,0.4075,0.4074,0.4028,0.4027,0.4027,0.3999,0.3998,0.3998,0.3988,0.3988,0.3989,0.3989,0.3983,0.3983,0.3982,0,0,0,0,0,0,0,0,0,0,0,0,0,0.4048,0.4074,0.4028,0.4021,0.4021,0.3999,0.3998,0.3997,0.3988,0.3988,0.3989,0.399,0.3983,0.3983,0.3982,0.3966,0,0,0.398,0.3979,0,0,0,0,0,0,0,0,0.405,0.4046,0.4022,0.4022,0.4021,0.4,0.4013,0.3989,0.3988,0.3997,0.3989,0.399,0.3992,0.3991,0.398,0.3965,0.3965,0.3979,0.3979,0.3979,0.3978,0,0,0,0,0,0,0,0.4052,0.4048,0.4013,0.4022,0.4021,0.4021,0.4017,0.4008,0.399,0.3996,0.3996,0.3998,0.3992,0.398,0.398,0.3965,0.398,0.3979,0.3978,0.3978,0.402,0.4021,0,0,0,0,0,0,0.406,0.4049,0.4014,0.4013,0.4041,0.4019,0.4015,0.4004,0.399,0.3989,0.3997,0.3997,0.3981,0.3981,0.3979,0.4013,0.3979,0.3978,0.3978,0.4018,0.402,0.4022,0,0,0,0,0,0,0.4061,0.4057,0.4015,0.4034,0.4029,0.4018,0.4005,0.4003,0.3998,0.3991,0.399,0.3996,0.3982,0.3981,0.3989,0.4011,0.3978,0.3977,0.4016,0.4019,0.4021,0.4046,0,0,0,0,0,0,0.4062,0.4057,0.4056,0.4034,0.4028,0.4015,0.4005,0.4002,0.3999,0.3999,0.3989,0.3988,0.3982,0.399,0.3988,0.4009,0.3976,0.4014,0.4017,0.402,0.4043,0.4049,0.4054,0,0,0,0,0,0.4064,0.4063,0.4055,0.4052,0.4024,0.4016,0.4013,0.4005,0.3998,0.4001,0.3999,0.3989,0.4008,0.399,0.3988,0.4009,0.4013,0.4016,0.402,0.4041,0.4048,0.4054,0,0,0,0,0,0,0.4088,0.4062,0.4053,0.4045,0.4036,0.4016,0.4018,0.4007,0.4004,0.4004,0.3995,0.3995,0.4017,0.401,0.399,0.4034,0.4014,0.4017,0.4031,0.4038,0.4043,0.4049,0.3976,0,0,0,0,0,0.4091,0.4083,0.406,0.4059,0.4052,0.4033,0.4029,0.402,0.4014,0.4012,0.4005,0.4011,0.4027,0.4029,0.4038,0.4046,0.4093,0.4066,0.4071,0.4075,0.4082,0.4169,0.4183,0.4033,0.4033,0.4033,0,0,0.4102,0.4088,0.4084,0.4064,0.4053,0.405,0.4031,0.4026,0.403,0.4012,0.4018,0.4025,0.4036,0.4058,0.4067,0.4053,0.4151,0.408,0.4083,0.4087,0.4175,0.4189,0.4202,0.4036,0.4035,0.4035,0,0,0.4121,0.4103,0.4101,0.4094,0.408,0.4068,0.4068,0.4046,0.4044,0.4044,0.405,0.4074,0.4071,0.4097,0.4107,0.4147,0.4179,0.415,0.4172,0.4258,0.4271,0.4283,0.4394,0.4415,0.4148,0.4148,0.4148,0,0.4137,0.4122,0.4103,0.4101,0.4101,0.4078,0.4079,0.4073,0.4061,0.4069,0.4054,0.4094,0.4096,0.4148,0.4162,0.4159,0.422,0.4142,0.4265,0.4278,0.4289,0.44,0.4423,0.4149,0.4149,0.4149,0.4149,0,0.4147,0.414,0.4141,0.4127,0.413,0.4125,0.4116,0.4118,0.4107,0.4104,0.4142,0.415,0.4178,0.4187,0.4179,0.4265,0.4288,0.4265,0.4246,0.4306,0.4419,0.4443,0.4152,0.4151,0.4151,0.415,0,0,0.4156,0.4147,0.4146,0.4145,0.4138,0.4137,0.4155,0.4161,0.4181,0.4175,0.4213,0.4237,0.4241,0.4255,0.4262,0.4323,0.4462,0.4324,0.4327,0.4431,0.4682,0.4777,0.4812,0.4459,0.4462,0.4465,0.4739,0,0.4163,0.4167,0.4163,0.4172,0.4168,0.4168,0.4189,0.4201,0.4211,0.4243,0.4262,0.4298,0.4268,0.429,0.4347,0.4423,0.4521,0.4391,0.4611,0.4619,0.4692,0.4841,0.4717,0.4957,0.4763,0.4767,0.477,0,0.4157,0.4163,0.417,0.4186,0.4186,0.4195,0.423,0.4248,0.4293,0.4307,0.4346,0.4359,0.4437,0.4406,0.4586,0.4504,0.4606,0.4669,0.4681,0.4774,0.4758,0.4861,0.5008,0.4706,0.4807,0.4804,0.4801,0,0.415,0.4162,0.4168,0.417,0.4189,0.4203,0.4221,0.4265,0.4289,0.4357,0.4391,0.4467,0.4525,0.4634,0.4749,0.4681,0.4974,0.4898,0.5097,0.5105,0.5047,0.5045,0.4922,0.5076,0.5076,0.5075,0.5074,0,0.4136,0.4134,0.4163,0.416,0.4176,0.4206,0.4234,0.4267,0.4334,0.4374,0.4424,0.4488,0.4585,0.4734,0.4822,0.5063,0.505,0.5157,0.5199,0.5058,0.5053,0.4824,0.4668,0.5085,0.5083,0.5081,0.5079,0,0.4092,0.4113,0.4113,0.4149,0.4159,0.417,0.4217,0.4251,0.4326,0.439,0.4416,0.4546,0.4756,0.4901,0.5123,0.5191,0.5238,0.5479,0.5328,0.5349,0.522,0.5073,0.5023,0.4897,0.5736,0.574,0.5744,0,0.4057,0.4059,0.409,0.4098,0.4102,0.4128,0.4152,0.4226,0.4271,0.4417,0.4457,0.4684,0.4832,0.523,0.5429,0.5697,0.5413,0.5714,0.556,0.5249,0.5114,0.4899,0.4777,0.5502,0.5503,0.5504,0.5505,0,0.3992,0.4007,0.4012,0.4038,0.4057,0.4075,0.4122,0.4159,0.426,0.435,0.4501,0.4642,0.5049,0.5252,0.5632,0.5776,0.539,0.5749,0.5437,0.4961,0.4706,0.4591,0.5291,0.5514,0.5513,0.5513,0.5512,0.5512,0.3933,0.3926,0.3951,0.3963,0.3988,0.4015,0.4011,0.4098,0.4179,0.4293,0.448,0.4645,0.4951,0.5482,0.5582,0.5591,0.5555,0.5423,0.5295,0.5125,0.4909,0.5674,0.5929,0.593,0.5932,0.5933,0.5934,0,0.3853,0.3864,0.3881,0.3888,0.3886,0.393,0.3978,0.3969,0.404,0.4215,0.4364,0.4579,0.4834,0.5028,0.5214,0.507,0.49,0.4901,0.4451,0.4375,0.5068,0.4953,0.4991,0.4991,0.4991,0.4991,0.4992,0.4992,0.3809,0.3795,0.3811,0.3782,0.3789,0.3755,0.3765,0.3789,0.3874,0.3939,0.4004,0.4148,0.4314,0.4458,0.4375,0.4376,0.3944,0.3925,0.3811,0.4124,0.4155,0.4184,0.4032,0.3876,0.3875,0.3,0.2992,0.2986]},{"header":{"parameterUnit":"m.s-1","parameterCategory":2,"la1":30.2991,"la2":30.254,"lo1":-89.0895,"lo2":-89.0444,"dy":0.0017,"dx":0.0017,"nx":28,"ny":28,"refTime":"2023-08-09T03:00:00:Z","depth":"0","parameterNumber":3,"parameterNumberName":"V-component_of_CURRENTS"},"data":[0,0,0,0,0,0,0,0,0,0,0,0,0,0,0,0,0,0,0,0,0,0,0,0,0,0,0,0,0,0,0,0,0,0,0,0,0,0,0,0,0,0,0,0,0,0,0,0,0,0,0,0,0,0,0,0,0,0,-0.0729,-0.0729,0,-0.0702,-0.0702,-0.0701,-0.0724,-0.0725,-0.0726,-0.0727,-0.0716,-0.0715,-0.0714,0,0,0,0,0,0,0,0,0,0,0,0,0,-0.0785,-0.0784,-0.0729,-0.0729,-0.0729,-0.0702,-0.0702,-0.0701,-0.0723,-0.0725,-0.0726,-0.0727,-0.0717,-0.0715,-0.0714,0,0,0,0,0,0,0,0,0,0,0,0,0,-0.0759,-0.0783,-0.073,-0.0737,-0.0738,-0.0702,-0.0702,-0.0701,-0.0723,-0.0725,-0.0726,-0.0728,-0.0717,-0.0715,-0.0713,-0.0672,0,0,-0.0708,-0.0707,0,0,0,0,0,0,0,0,-0.076,-0.0757,-0.0736,-0.0737,-0.0737,-0.0718,-0.0717,-0.0693,-0.0723,-0.0728,-0.0727,-0.0728,-0.0718,-0.0716,-0.0706,-0.0672,-0.0671,-0.0708,-0.0707,-0.0706,-0.0705,0,0,0,0,0,0,0,-0.0762,-0.0758,-0.0718,-0.0736,-0.0736,-0.0737,-0.0735,-0.0713,-0.0715,-0.0728,-0.0729,-0.0727,-0.0718,-0.0708,-0.0706,-0.0671,-0.0708,-0.0706,-0.0705,-0.0704,-0.061,-0.0608,0,0,0,0,0,0,-0.0766,-0.0759,-0.0719,-0.0717,-0.0753,-0.0734,-0.0732,-0.0722,-0.0715,-0.0715,-0.0726,-0.0728,-0.071,-0.0708,-0.0706,-0.0662,-0.0706,-0.0704,-0.0703,-0.0611,-0.0609,-0.0608,0,0,0,0,0,0,-0.0767,-0.0762,-0.072,-0.0739,-0.0734,-0.0732,-0.0721,-0.0721,-0.0716,-0.0713,-0.0714,-0.0722,-0.0711,-0.0709,-0.0683,-0.0662,-0.0703,-0.0702,-0.0613,-0.061,-0.0608,-0.0572,0,0,0,0,0,0,-0.0768,-0.0762,-0.0754,-0.0739,-0.0733,-0.0699,-0.0719,-0.0719,-0.0713,-0.0716,-0.0709,-0.071,-0.0712,-0.0685,-0.0681,-0.0661,-0.07,-0.0614,-0.0612,-0.0609,-0.0575,-0.0569,-0.0563,0,0,0,0,0,-0.077,-0.0752,-0.0753,-0.0748,-0.0722,-0.0698,-0.0695,-0.0699,-0.0711,-0.0701,-0.0696,-0.071,-0.0666,-0.0682,-0.0678,-0.0656,-0.0616,-0.0612,-0.0609,-0.0577,-0.057,-0.0564,0,0,0,0,0,0,-0.0771,-0.0752,-0.0753,-0.0731,-0.0716,-0.0703,-0.0692,-0.0694,-0.0681,-0.0684,-0.0688,-0.0686,-0.0658,-0.0656,-0.0675,-0.062,-0.0644,-0.064,-0.0621,-0.0614,-0.0608,-0.0606,-0.0699,0,0,0,0,0,-0.0766,-0.0748,-0.0733,-0.0714,-0.0707,-0.0698,-0.0689,-0.0689,-0.0677,-0.0673,-0.0668,-0.0656,-0.0636,-0.0627,-0.0611,-0.0576,-0.058,-0.0559,-0.0553,-0.0549,-0.0542,-0.0533,-0.0527,-0.0597,-0.0597,-0.0597,0,0,-0.0757,-0.0747,-0.0735,-0.0713,-0.0703,-0.0675,-0.0697,-0.0678,-0.0653,-0.0672,-0.0637,-0.0635,-0.0622,-0.0588,-0.0575,-0.0587,-0.0528,-0.0545,-0.0541,-0.0537,-0.0529,-0.0523,-0.0517,-0.0595,-0.0595,-0.0596,0,0,-0.0729,-0.0725,-0.07,-0.0684,-0.0667,-0.0659,-0.0654,-0.0636,-0.063,-0.0595,-0.0602,-0.0586,-0.0556,-0.0541,-0.0531,-0.0479,-0.05,-0.0478,-0.0445,-0.0436,-0.0431,-0.0426,-0.0417,-0.0411,-0.0474,-0.0474,-0.0474,0,-0.072,-0.0684,-0.0688,-0.066,-0.064,-0.065,-0.0614,-0.0601,-0.0577,-0.0561,-0.0581,-0.0534,-0.053,-0.0483,-0.0471,-0.0466,-0.0469,-0.0475,-0.043,-0.0426,-0.0422,-0.0413,-0.0408,-0.0472,-0.0472,-0.0472,-0.0472,0,-0.067,-0.0641,-0.0625,-0.0591,-0.0574,-0.0543,-0.053,-0.0511,-0.051,-0.05,-0.0464,-0.046,-0.0437,-0.0431,-0.0436,-0.0397,-0.0411,-0.0428,-0.0452,-0.0413,-0.0406,-0.0401,-0.0468,-0.0469,-0.047,-0.047,0,0,-0.0635,-0.0597,-0.0587,-0.0559,-0.0532,-0.0508,-0.0471,-0.0434,-0.0404,-0.04,-0.0362,-0.0341,-0.0359,-0.0348,-0.0355,-0.0347,-0.0322,-0.0376,-0.0376,-0.0374,-0.0304,-0.0299,-0.0293,-0.034,-0.0339,-0.0338,-0.031,0,-0.0588,-0.0526,-0.0519,-0.045,-0.0413,-0.041,-0.0371,-0.0345,-0.0335,-0.0304,-0.0311,-0.0284,-0.0322,-0.0314,-0.0313,-0.0314,-0.0309,-0.0328,-0.0336,-0.0336,-0.0342,-0.0287,-0.0223,-0.0192,-0.0305,-0.0305,-0.0304,0,-0.0527,-0.0495,-0.0428,-0.0371,-0.0355,-0.0322,-0.0267,-0.0234,-0.0208,-0.0204,-0.0199,-0.0212,-0.0195,-0.0242,-0.0236,-0.025,-0.0275,-0.0286,-0.0286,-0.029,-0.0321,-0.025,-0.0179,-0.0385,-0.0297,-0.0298,-0.0298,0,-0.0485,-0.0421,-0.0369,-0.0348,-0.0295,-0.0265,-0.0238,-0.0203,-0.0165,-0.0148,-0.0126,-0.0129,-0.0119,-0.015,-0.0177,-0.021,-0.0171,-0.0221,-0.0238,-0.0238,-0.0188,-0.0186,-0.0322,-0.0221,-0.0221,-0.0221,-0.0222,0,-0.0423,-0.0371,-0.0346,-0.0311,-0.0243,-0.0226,-0.0157,-0.0135,-0.0098,-0.0047,-0.0079,-0.0037,-0.0098,-0.0087,-0.0139,-0.0154,-0.0142,-0.0215,-0.0223,-0.0172,-0.0169,-0.035,-0.0463,-0.022,-0.0221,-0.0221,-0.0221,0,-0.0363,-0.035,-0.0282,-0.0234,-0.0219,-0.017,-0.011,-0.0058,-0.0038,0.0026,0.0033,0.0045,0.0063,0.0019,-0.001,-0.0087,-0.0191,-0.0127,-0.0062,-0.0063,-0.0303,-0.0413,-0.0516,-0.0557,-0.0155,-0.0154,-0.0154,0,-0.0322,-0.0286,-0.0232,-0.0193,-0.0168,-0.0108,-0.0061,-0.0033,0.0016,0.0087,0.0126,0.016,0.0222,0.0192,0.009,0.0027,-0.0145,-0.0022,-0.0082,-0.0295,-0.0424,-0.0511,-0.0544,0.0001,0.0003,0.0004,0.0005,0,-0.0243,-0.0233,-0.0184,-0.0118,-0.0069,-0.0004,0.0056,0.01,0.0141,0.0217,0.0306,0.037,0.0349,0.0347,0.0247,0.0164,-0.0147,-0.0002,-0.0228,-0.0314,-0.0406,-0.0455,-0.0055,0.0017,0.0016,0.0015,0.0014,0.0014,-0.0188,-0.0142,-0.0096,-0.0034,0.0025,0.0099,0.016,0.0246,0.0351,0.0535,0.0515,0.0765,0.0607,0.0508,0.0292,-0.005,-0.0077,-0.0176,-0.0288,-0.0356,-0.041,0.0009,0.0067,0.0066,0.0065,0.0064,0.0064,0,-0.0124,-0.0081,-0.0012,0.0058,0.0124,0.0141,0.024,0.0346,0.0497,0.0801,0.0951,0.1159,0.0928,0.0633,0.0134,-0.025,-0.0381,-0.0477,-0.0603,-0.0618,-0.024,-0.0253,-0.0253,-0.0253,-0.0253,-0.0252,-0.0252,-0.0252,-0.0081,-0.0016,0.0009,0.0117,0.0171,0.028,0.0341,0.0554,0.0811,0.1278,0.1627,0.1812,0.1567,0.0375,-0.0445,-0.0642,-0.0904,-0.0956,-0.1116,-0.0909,-0.0891,-0.0874,-0.0916,-0.1055,-0.1056,-0.1409,-0.1413,-0.1417]}],[{"header":{"parameterUnit":"m.s-1","parameterCategory":2,"la1":30.2991,"la2":30.254,"lo1":-89.0895,"lo2":-89.0444,"dy":0.0017,"dx":0.0017,"nx":28,"ny":28,"refTime":"2023-08-09T03:00:00:Z","depth":"2","parameterNumber":2,"parameterNumberName":"U-component_of_CURRENTS"},"data":[0,0,0,0,0,0,0,0,0,0,0,0,0,0,0,0,0,0,0,0,0,0,0,0,0,0,0,0,0,0,0,0,0,0,0,0,0,0,0,0,0,0,0,0,0,0,0,0,0,0,0,0,0,0,0,0,0,0,0.1638,0.1639,0,0.1781,0.1783,0.1785,0.1822,0.1821,0.182,0.1819,0.1942,0.1946,0.195,0,0,0,0,0,0,0,0,0,0,0,0,0,0.1472,0.1474,0.1637,0.1639,0.1641,0.1781,0.1783,0.1785,0.1822,0.1821,0.182,0.1819,0.1941,0.1945,0.195,0,0,0,0,0,0,0,0,0,0,0,0,0,0.1572,0.1475,0.1637,0.1676,0.1681,0.1781,0.1783,0.1786,0.1822,0.1821,0.182,0.1818,0.1939,0.1945,0.1951,0.2015,0,0,0.197,0.1972,0,0,0,0,0,0,0,0,0.1566,0.1578,0.1669,0.1674,0.168,0.1782,0.177,0.1861,0.1823,0.1769,0.1819,0.1818,0.1888,0.1898,0.1928,0.2021,0.2026,0.197,0.1974,0.1977,0.1978,0,0,0,0,0,0,0,0.1559,0.1573,0.1694,0.1671,0.1677,0.1713,0.1725,0.1788,0.1833,0.1773,0.1776,0.1793,0.189,0.1922,0.1931,0.2028,0.197,0.1975,0.1979,0.1982,0.2307,0.2311,0,0,0,0,0,0,0.154,0.1566,0.169,0.1699,0.1619,0.1717,0.1731,0.1751,0.1833,0.1845,0.1794,0.1794,0.1912,0.1924,0.1936,0.2102,0.1976,0.1982,0.1986,0.2302,0.2308,0.2313,0,0,0,0,0,0,0.1536,0.1549,0.1684,0.1635,0.1655,0.1721,0.1743,0.1754,0.1799,0.1849,0.186,0.1828,0.1912,0.1927,0.2039,0.2104,0.1985,0.1991,0.2296,0.2304,0.231,0.2381,0,0,0,0,0,0,0.153,0.1547,0.1567,0.1634,0.1657,0.1765,0.1745,0.1758,0.181,0.1812,0.1882,0.1891,0.1912,0.203,0.2045,0.211,0.1995,0.229,0.2299,0.2308,0.2372,0.239,0.2405,0,0,0,0,0,0.1524,0.1563,0.1567,0.1582,0.1677,0.1767,0.1784,0.1825,0.1813,0.1855,0.1916,0.189,0.21,0.204,0.2056,0.2123,0.2285,0.2297,0.2307,0.2365,0.2386,0.2404,0,0,0,0,0,0,0.1509,0.1572,0.1578,0.1634,0.1701,0.1774,0.1818,0.1838,0.1918,0.192,0.1952,0.1969,0.2103,0.2113,0.2045,0.2252,0.219,0.2204,0.2228,0.2248,0.2264,0.2267,0.2,0,0,0,0,0,0.1511,0.1551,0.1619,0.1667,0.1699,0.1757,0.1799,0.183,0.1902,0.1934,0.1983,0.2056,0.2164,0.22,0.229,0.2387,0.243,0.2447,0.2463,0.2476,0.2496,0.2641,0.2671,0.235,0.235,0.2349,0,0,0.1519,0.1558,0.1583,0.1666,0.1715,0.179,0.1781,0.1857,0.1926,0.1937,0.2049,0.2124,0.2212,0.2343,0.2399,0.235,0.2593,0.249,0.25,0.2513,0.2656,0.2686,0.2714,0.2357,0.2356,0.2355,0,0,0.1558,0.159,0.1637,0.1699,0.1778,0.1826,0.1849,0.1933,0.1979,0.2094,0.2144,0.2262,0.2376,0.2473,0.2532,0.2694,0.2691,0.2713,0.2773,0.2914,0.294,0.2964,0.3053,0.3084,0.2698,0.2698,0.2698,0,0.1565,0.1628,0.167,0.1737,0.1793,0.1842,0.1915,0.1987,0.2099,0.2158,0.2138,0.2391,0.245,0.2647,0.2705,0.2729,0.2787,0.2678,0.2931,0.2956,0.298,0.3065,0.3098,0.2703,0.2703,0.2702,0.2702,0,0.1642,0.1697,0.1737,0.183,0.1902,0.1976,0.2068,0.2144,0.2189,0.226,0.2448,0.2555,0.2698,0.2745,0.2771,0.2982,0.2964,0.2947,0.2866,0.3015,0.3096,0.313,0.271,0.2708,0.2707,0.2706,0,0,0.1647,0.1762,0.1777,0.1818,0.1952,0.2011,0.2144,0.2277,0.2359,0.2479,0.2609,0.2812,0.2856,0.2931,0.2994,0.3105,0.3313,0.3088,0.3093,0.3148,0.3601,0.3314,0.3322,0.3334,0.3341,0.3346,0.3587,0,0.1693,0.1795,0.1862,0.1976,0.2037,0.2131,0.225,0.2378,0.2476,0.2614,0.2758,0.2915,0.2931,0.3007,0.3137,0.3287,0.3408,0.3248,0.3474,0.348,0.3184,0.3354,0.307,0.3236,0.3619,0.3625,0.3629,0,0.1752,0.1807,0.1907,0.2029,0.2067,0.2151,0.232,0.2433,0.2642,0.272,0.2896,0.3006,0.3243,0.3202,0.3536,0.3432,0.3535,0.362,0.3631,0.3361,0.3255,0.3157,0.3283,0.3684,0.368,0.3676,0.3672,0,0.1719,0.1843,0.1907,0.1954,0.2108,0.2177,0.2271,0.2466,0.2569,0.2796,0.2888,0.3162,0.3295,0.3507,0.3689,0.3639,0.4005,0.3953,0.38,0.378,0.358,0.3527,0.4193,0.4193,0.4192,0.4192,0.4191,0,0.1751,0.1808,0.1884,0.1927,0.2016,0.2141,0.2269,0.2398,0.2598,0.2745,0.2936,0.3101,0.338,0.3605,0.3758,0.3876,0.4078,0.3849,0.3841,0.359,0.3539,0.3951,0.3919,0.4201,0.4199,0.4197,0.4195,0,0.1738,0.179,0.1854,0.1967,0.2004,0.2067,0.2237,0.2331,0.2523,0.2721,0.2807,0.3106,0.3405,0.3647,0.3985,0.3913,0.4088,0.4076,0.3722,0.3661,0.3751,0.3722,0.3934,0.3926,0.392,0.3914,0.391,0,0.1757,0.1777,0.1842,0.1857,0.1909,0.2006,0.2082,0.2276,0.2383,0.273,0.2824,0.3155,0.3351,0.3671,0.3686,0.3851,0.4062,0.3599,0.3423,0.3763,0.3736,0.3716,0.3696,0.3227,0.3217,0.3209,0.3202,0,0.1769,0.1765,0.1796,0.1815,0.1861,0.1921,0.2044,0.2117,0.2375,0.2557,0.283,0.3011,0.3235,0.3238,0.3331,0.3391,0.3531,0.3422,0.3995,0.3257,0.3094,0.3065,0.3071,0.3131,0.3138,0.3143,0.3147,0.315,0.1756,0.175,0.1753,0.1782,0.181,0.1845,0.19,0.2017,0.2186,0.2414,0.2686,0.2838,0.2863,0.2822,0.2855,0.2854,0.3037,0.2951,0.2981,0.3018,0.2814,0.2639,0.2555,0.2558,0.2561,0.2564,0.2567,0,0.1749,0.1731,0.173,0.1745,0.1753,0.1799,0.1885,0.1936,0.208,0.2211,0.2414,0.2287,0.2279,0.2432,0.2235,0.215,0.2192,0.2177,0.2252,0.2319,0.238,0.2149,0.1712,0.1711,0.1709,0.1707,0,0,0.1741,0.1726,0.172,0.1709,0.1717,0.1715,0.1757,0.1822,0.1893,0.189,0.1906,0.2082,0.2211,0.188,0.1857,0.1782,0.2054,0.1732,0.2404,0.2553,0.2613,0.2794,0.2505,0,0,0,0,0]},{"header":{"parameterUnit":"m.s-1","parameterCategory":2,"la1":30.2991,"la2":30.254,"lo1":-89.0895,"lo2":-89.0444,"dy":0.0017,"dx":0.0017,"nx":28,"ny":28,"refTime":"2023-08-09T03:00:00:Z","depth":"2","parameterNumber":3,"parameterNumberName":"V-component_of_CURRENTS"},"data":[0,0,0,0,0,0,0,0,0,0,0,0,0,0,0,0,0,0,0,0,0,0,0,0,0,0,0,0,0,0,0,0,0,0,0,0,0,0,0,0,0,0,0,0,0,0,0,0,0,0,0,0,0,0,0,0,0,0,0.0734,0.0733,0,0.0598,0.0596,0.0594,0.0418,0.0416,0.0413,0.041,0.0157,0.0153,0.0148,0,0,0,0,0,0,0,0,0,0,0,0,0,0.0789,0.0789,0.0734,0.0732,0.0731,0.0598,0.0596,0.0594,0.0419,0.0415,0.0412,0.0409,0.0158,0.0153,0.0148,0,0,0,0,0,0,0,0,0,0,0,0,0,0.0718,0.0789,0.0734,0.063,0.0619,0.0599,0.0596,0.0593,0.0419,0.0415,0.0411,0.0408,0.016,0.0154,0.0147,0.0185,0,0,0.0127,0.0125,0,0,0,0,0,0,0,0,0.0722,0.0716,0.0646,0.0637,0.0625,0.0524,0.0523,0.0452,0.042,0.0492,0.041,0.0406,0.0274,0.0258,0.0238,0.0173,0.0162,0.0127,0.0123,0.012,0.0118,0,0,0,0,0,0,0,0.0728,0.072,0.0677,0.0645,0.0632,0.0572,0.0558,0.0509,0.0402,0.0485,0.0473,0.0464,0.0266,0.0245,0.023,0.0159,0.0127,0.0121,0.0117,0.0115,0.0026,0.0027,0,0,0,0,0,0,0.0758,0.0726,0.0681,0.0673,0.0669,0.0575,0.0558,0.0558,0.0404,0.0379,0.0468,0.0456,0.0258,0.0238,0.0221,0.0215,0.012,0.0114,0.011,0.0024,0.0026,0.0028,0,0,0,0,0,0,0.076,0.0756,0.0687,0.0698,0.0685,0.0579,0.0579,0.0557,0.0513,0.0393,0.0363,0.0443,0.0254,0.023,0.0179,0.0205,0.0111,0.0105,0.0022,0.0025,0.0027,0.023,0,0,0,0,0,0,0.0762,0.0758,0.0767,0.0701,0.0686,0.0689,0.0582,0.0557,0.0516,0.05,0.0363,0.0336,0.0249,0.019,0.0173,0.0194,0.01,0.002,0.0023,0.0026,0.0221,0.0239,0.0254,0,0,0,0,0,0.0765,0.0804,0.0769,0.0763,0.0703,0.0692,0.068,0.0587,0.0519,0.0527,0.0429,0.0339,0.0194,0.0187,0.0166,0.0186,0.0019,0.0023,0.0026,0.0214,0.0236,0.0254,0,0,0,0,0,0,0.0829,0.0788,0.0748,0.077,0.0738,0.0663,0.0664,0.0599,0.053,0.0501,0.0372,0.0342,0.0307,0.0225,0.022,0.0167,0.0087,0.0087,0.0238,0.0257,0.0273,0.0297,0.0095,0,0,0,0,0,0.0855,0.0871,0.0819,0.0837,0.0829,0.0747,0.0727,0.0668,0.0601,0.0563,0.0468,0.037,0.0314,0.0267,0.0204,0.0186,0.0121,0.0179,0.0196,0.0211,0.0216,0.0168,0.0182,0.0039,0.0039,0.0039,0,0,0.0883,0.0865,0.087,0.0852,0.0816,0.083,0.0724,0.071,0.0703,0.0551,0.0512,0.0433,0.0325,0.0301,0.0276,0.0228,0.0221,0.0215,0.0228,0.0225,0.0173,0.0187,0.02,0.0041,0.0041,0.004,0,0,0.096,0.0937,0.0974,0.0966,0.0933,0.0892,0.0894,0.0823,0.0773,0.0741,0.0633,0.0583,0.0472,0.0417,0.0371,0.0444,0.0319,0.0401,0.0492,0.0448,0.046,0.0469,0.0428,0.0432,0.0398,0.0399,0.0399,0,0.0987,0.1028,0.0985,0.1022,0.102,0.093,0.0964,0.0926,0.0842,0.0813,0.0748,0.062,0.0536,0.0515,0.0528,0.0485,0.0425,0.0433,0.0472,0.048,0.0486,0.0441,0.0443,0.0409,0.0408,0.0407,0.0406,0,0.1087,0.1119,0.1148,0.116,0.116,0.1181,0.1128,0.1102,0.1024,0.097,0.0923,0.0823,0.0729,0.0711,0.0634,0.0637,0.0572,0.0513,0.0431,0.0513,0.046,0.0458,0.0423,0.042,0.0417,0.0414,0,0,0.1126,0.1201,0.1204,0.1229,0.123,0.1231,0.1246,0.1223,0.1194,0.1133,0.1113,0.1037,0.095,0.0893,0.0801,0.0769,0.0774,0.0657,0.065,0.0632,0.0666,0.0587,0.0576,0.0708,0.0709,0.0709,0.062,0,0.1202,0.1309,0.1317,0.1392,0.1436,0.1382,0.1385,0.135,0.1288,0.125,0.1178,0.1109,0.1027,0.0959,0.0934,0.0816,0.0773,0.0803,0.0573,0.0566,0.05,0.0573,0.051,0.0421,0.0617,0.0617,0.0616,0,0.127,0.134,0.1435,0.1484,0.1489,0.1504,0.147,0.146,0.1407,0.1351,0.1306,0.1219,0.1185,0.1079,0.0959,0.0971,0.0825,0.0739,0.0732,0.0582,0.0484,0.0363,0.0409,0.0612,0.0612,0.0613,0.0613,0,0.129,0.1402,0.1475,0.1499,0.1544,0.1539,0.1528,0.1476,0.1451,0.1396,0.1371,0.1315,0.126,0.1131,0.0956,0.0932,0.0818,0.0755,0.0555,0.0548,0.0411,0.039,0.0641,0.0641,0.0641,0.0641,0.0641,0,0.1348,0.1401,0.1481,0.1517,0.1559,0.1558,0.1554,0.1517,0.148,0.1479,0.1401,0.1411,0.1259,0.1175,0.1007,0.08,0.0845,0.0587,0.0525,0.048,0.0468,0.0554,0.0545,0.0638,0.0638,0.0639,0.064,0,0.1341,0.1405,0.1486,0.1554,0.1566,0.1572,0.1576,0.1581,0.1514,0.1519,0.15,0.1476,0.1397,0.1234,0.1039,0.0845,0.0659,0.0546,0.0513,0.0448,0.0405,0.0408,0.0336,0.0332,0.0329,0.0327,0.0325,0,0.1352,0.1397,0.1495,0.1543,0.1569,0.1593,0.1616,0.1584,0.1597,0.1579,0.1608,0.1542,0.1546,0.127,0.0921,0.0614,0.0631,0.0309,0.0251,0.043,0.0376,0.0383,0.039,0.0156,0.0152,0.015,0.0148,0,0.1368,0.1384,0.145,0.1547,0.1599,0.167,0.1699,0.173,0.1704,0.1725,0.1777,0.1783,0.1507,0.1201,0.0749,0.0545,0.0367,0.0241,0.0437,0.0244,0.0253,0.0202,0.0216,0.0124,0.0126,0.0128,0.0129,0.013,0.1347,0.1386,0.146,0.1535,0.1615,0.1714,0.1768,0.1853,0.1903,0.1908,0.1927,0.1858,0.1456,0.0862,0.0528,0.0156,0.0195,0.0019,0.003,0.0044,0.004,0.0043,-0.0125,-0.0124,-0.0123,-0.0122,-0.0122,0,0.1325,0.1365,0.1455,0.1539,0.1617,0.1659,0.1797,0.1867,0.1981,0.1976,0.1993,0.1554,0.1185,0.0805,0.0166,-0.019,-0.0176,-0.0235,-0.0175,-0.0153,-0.0132,-0.014,-0.0356,-0.0357,-0.0357,-0.0358,0,0,0.1312,0.1359,0.1401,0.1493,0.1554,0.1697,0.1787,0.1895,0.1937,0.1961,0.1833,0.1672,0.1171,0.0652,0.0224,-0.0075,-0.0014,-0.0107,0.0099,0.0239,0.0264,0.0012,0.0024,0,0,0,0,0]}],[{"header":{"parameterUnit":"m.s-1","parameterCategory":2,"la1":30.2991,"la2":30.254,"lo1":-89.0895,"lo2":-89.0444,"dy":0.0017,"dx":0.0017,"nx":28,"ny":28,"refTime":"2023-08-09T03:00:00:Z","depth":"4","parameterNumber":2,"parameterNumberName":"U-component_of_CURRENTS"},"data":[0,0,0,0,0,0,0,0,0,0,0,0,0,0,0,0,0,0,0,0,0,0,0,0,0,0,0,0,0,0,0,0,0,0,0,0,0,0,0,0,0,0,0,0,0,0,0,0,0,0,0,0,0,0,0,0,0,0,0.0486,0.0487,0,0.0604,0.0606,0.0607,0.0687,0.0688,0.0688,0.0689,0.0747,0.0748,0.0749,0,0,0,0,0,0,0,0,0,0,0,0,0,0.0384,0.0385,0.0485,0.0487,0.0488,0.0604,0.0606,0.0608,0.0687,0.0688,0.0688,0.0689,0.0747,0.0748,0.0749,0,0,0,0,0,0,0,0,0,0,0,0,0,0.0459,0.0386,0.0485,0.0541,0.0547,0.0604,0.0606,0.0608,0.0687,0.0688,0.0689,0.0689,0.0746,0.0748,0.0749,0.0746,0,0,0.0754,0.0755,0,0,0,0,0,0,0,0,0.0454,0.0462,0.0532,0.0537,0.0544,0.0631,0.0592,0.0651,0.0687,0.0635,0.0689,0.069,0.0701,0.0707,0.073,0.0748,0.0751,0.0755,0.0756,0.0756,0.0757,0,0,0,0,0,0,0,0.0449,0.0458,0.0534,0.0533,0.0541,0.058,0.0591,0.0604,0.0662,0.064,0.0646,0.0657,0.0705,0.0728,0.0732,0.0752,0.0755,0.0756,0.0757,0.0758,0.0776,0.0776,0,0,0,0,0,0,0.0429,0.0453,0.053,0.0537,0.0499,0.0581,0.0593,0.0603,0.0664,0.0674,0.0656,0.066,0.0725,0.073,0.0734,0.076,0.0756,0.0758,0.0759,0.0777,0.0776,0.0776,0,0,0,0,0,0,0.0426,0.0434,0.0525,0.0497,0.0511,0.0581,0.0592,0.0605,0.0674,0.0677,0.0686,0.0717,0.0726,0.0731,0.0762,0.0762,0.0759,0.076,0.0777,0.0777,0.0776,0.0794,0,0,0,0,0,0,0.0423,0.0433,0.0459,0.0495,0.0512,0.0589,0.0592,0.0607,0.0677,0.0685,0.0731,0.0735,0.0727,0.076,0.0764,0.0764,0.0761,0.0778,0.0777,0.0776,0.0794,0.0794,0.0794,0,0,0,0,0,0.0418,0.0444,0.0459,0.047,0.0537,0.0591,0.0605,0.0657,0.0679,0.0721,0.0732,0.0736,0.0755,0.0762,0.0766,0.0767,0.0779,0.0777,0.0776,0.0794,0.0794,0.0794,0,0,0,0,0,0,0.0417,0.0456,0.0473,0.0511,0.0562,0.0605,0.0658,0.0684,0.0732,0.0748,0.0745,0.0749,0.0768,0.0767,0.0774,0.0765,0.0762,0.0761,0.0773,0.0773,0.0773,0.0789,0.0763,0,0,0,0,0,0.0425,0.0461,0.0498,0.0539,0.0569,0.0623,0.0662,0.0694,0.0727,0.0755,0.0773,0.0777,0.0759,0.0771,0.0767,0.0782,0.076,0.0778,0.0778,0.0778,0.0791,0.0736,0.0733,0.0772,0.0772,0.0772,0,0,0.0434,0.0465,0.0485,0.0544,0.0594,0.064,0.0651,0.0725,0.0753,0.0748,0.0805,0.079,0.0763,0.0763,0.0771,0.0771,0.0755,0.0776,0.0777,0.079,0.0735,0.0731,0.0727,0.0771,0.0771,0.0771,0,0,0.0466,0.0506,0.0547,0.0596,0.0672,0.0692,0.0721,0.0781,0.0808,0.0847,0.0824,0.0814,0.0831,0.079,0.077,0.0772,0.0755,0.077,0.079,0.0736,0.0733,0.0729,0.0699,0.0693,0.0772,0.0772,0.0772,0,0.0483,0.0534,0.0571,0.063,0.0674,0.0717,0.077,0.0796,0.0853,0.0853,0.0873,0.0842,0.0834,0.0781,0.0779,0.0773,0.075,0.0794,0.0737,0.0733,0.0729,0.0699,0.0692,0.0772,0.0772,0.0772,0.0772,0,0.0535,0.0597,0.0637,0.071,0.0754,0.082,0.0846,0.0881,0.0909,0.0912,0.09,0.0873,0.0852,0.083,0.0814,0.0767,0.0762,0.0741,0.074,0.0726,0.0695,0.0687,0.0774,0.0773,0.0773,0.0773,0,0,0.0536,0.0646,0.0677,0.0724,0.0809,0.0849,0.088,0.0905,0.0914,0.0937,0.0927,0.0888,0.0879,0.0855,0.0815,0.0769,0.0726,0.0758,0.0755,0.0735,0.0625,0.0661,0.0656,0.0694,0.0693,0.0692,0.0615,0,0.0583,0.0689,0.073,0.0833,0.0883,0.0921,0.0939,0.0958,0.0962,0.0958,0.0907,0.0897,0.0882,0.0875,0.0824,0.0743,0.0707,0.075,0.0637,0.0634,0.0672,0.0649,0.0688,0.0609,0.0608,0.0606,0.0605,0,0.0631,0.0693,0.08,0.0879,0.0908,0.0969,0.1001,0.1021,0.0995,0.0994,0.0962,0.0933,0.0872,0.0867,0.074,0.0771,0.0718,0.0657,0.0651,0.0678,0.0656,0.0623,0.0591,0.0592,0.0593,0.0594,0.0595,0,0.0616,0.0745,0.0832,0.0875,0.0961,0.1009,0.1045,0.1043,0.1039,0.1027,0.1013,0.0944,0.0909,0.0825,0.0724,0.0737,0.0574,0.057,0.055,0.0552,0.0535,0.054,0.0493,0.0494,0.0494,0.0494,0.0494,0,0.0634,0.072,0.0851,0.0907,0.0987,0.1039,0.109,0.1103,0.1092,0.1031,0.1048,0.0944,0.0899,0.0796,0.0717,0.0609,0.0571,0.0558,0.0532,0.0545,0.0551,0.053,0.0535,0.0491,0.0492,0.0492,0.0493,0,0.0619,0.0712,0.0823,0.095,0.0993,0.106,0.1134,0.1127,0.1143,0.1059,0.1059,0.0958,0.0832,0.0783,0.0627,0.0603,0.0493,0.0466,0.0496,0.0472,0.0515,0.0522,0.0455,0.0456,0.0457,0.0457,0.0457,0,0.0618,0.0679,0.0859,0.0912,0.0994,0.1085,0.1109,0.1155,0.1107,0.0987,0.0902,0.0827,0.0745,0.0588,0.0522,0.0459,0.0449,0.044,0.0487,0.0529,0.0509,0.0516,0.0522,0.0458,0.0458,0.0458,0.0458,0,0.0601,0.0701,0.0783,0.0889,0.0972,0.1024,0.1051,0.0996,0.095,0.0988,0.0788,0.073,0.0602,0.0526,0.0538,0.0444,0.0475,0.0445,0.0444,0.0489,0.0531,0.0513,0.0518,0.046,0.046,0.046,0.046,0,0.0603,0.0653,0.0763,0.0845,0.0919,0.0898,0.0934,0.0872,0.0856,0.0745,0.0627,0.0542,0.0518,0.0504,0.0419,0.0454,0.0462,0.0487,0.0484,0.0482,0.0532,0.0592,0.0517,0,0,0,0,0,0.0587,0.0623,0.0683,0.0747,0.0797,0.0828,0.084,0.0843,0.0772,0.0658,0.0673,0.055,0.0496,0.0424,0.0468,0.0401,0.0441,0.0449,0.0463,0.0469,0.0468,0.0528,0,0,0,0,0,0,0.057,0.0648,0.066,0.0632,0.0618,0.0649,0.0638,0.0602,0.0554,0.0514,0.0496,0.0558,0.0514,0.0474,0.0456,0.0456,0.0473,0.0453,0.0454,0.0471,0.0469,0.0467,0.0529,0,0,0,0,0]},{"header":{"parameterUnit":"m.s-1","parameterCategory":2,"la1":30.2991,"la2":30.254,"lo1":-89.0895,"lo2":-89.0444,"dy":0.0017,"dx":0.0017,"nx":28,"ny":28,"refTime":"2023-08-09T03:00:00:Z","depth":"4","parameterNumber":3,"parameterNumberName":"V-component_of_CURRENTS"},"data":[0,0,0,0,0,0,0,0,0,0,0,0,0,0,0,0,0,0,0,0,0,0,0,0,0,0,0,0,0,0,0,0,0,0,0,0,0,0,0,0,0,0,0,0,0,0,0,0,0,0,0,0,0,0,0,0,0,0,0.0058,0.0057,0,-0.0056,-0.0058,-0.0059,-0.0103,-0.0102,-0.0101,-0.0101,-0.0195,-0.0198,-0.0201,0,0,0,0,0,0,0,0,0,0,0,0,0,0.0146,0.0145,0.0058,0.0057,0.0056,-0.0056,-0.0058,-0.006,-0.0103,-0.0102,-0.0101,-0.01,-0.0194,-0.0198,-0.0202,0,0,0,0,0,0,0,0,0,0,0,0,0,0.0074,0.0145,0.0058,0.0023,0.0019,-0.0056,-0.0058,-0.006,-0.0103,-0.0102,-0.0101,-0.01,-0.0193,-0.0197,-0.0202,-0.0251,0,0,-0.0216,-0.0219,0,0,0,0,0,0,0,0,0.0079,0.0071,0.003,0.0026,0.0021,-0.0061,-0.0061,-0.0122,-0.0103,-0.006,-0.0101,-0.01,-0.0147,-0.0155,-0.0184,-0.0255,-0.0259,-0.0217,-0.022,-0.0222,-0.0223,0,0,0,0,0,0,0,0.0084,0.0075,0.0009,0.0028,0.0023,-0.0018,-0.0027,-0.0074,-0.011,-0.0064,-0.0066,-0.0074,-0.0149,-0.018,-0.0187,-0.0261,-0.0217,-0.0221,-0.0224,-0.0226,-0.0388,-0.039,0,0,0,0,0,0,0.0108,0.008,0.0013,0.0006,0.0057,-0.002,-0.003,-0.0039,-0.011,-0.0119,-0.0075,-0.0075,-0.0172,-0.0181,-0.019,-0.0263,-0.0222,-0.0226,-0.0229,-0.0387,-0.0389,-0.039,0,0,0,0,0,0,0.0111,0.0103,0.0018,0.0043,0.003,-0.0021,-0.0032,-0.0041,-0.0071,-0.0118,-0.0127,-0.0094,-0.0172,-0.0184,-0.0247,-0.0266,-0.0228,-0.0233,-0.0385,-0.0387,-0.0389,-0.0402,0,0,0,0,0,0,0.0114,0.0105,0.0104,0.0045,0.003,-0.0031,-0.0033,-0.0044,-0.0076,-0.0078,-0.0138,-0.0145,-0.0172,-0.024,-0.0251,-0.0272,-0.0236,-0.0383,-0.0386,-0.0389,-0.04,-0.0405,-0.0409,0,0,0,0,0,0.0117,0.0104,0.0105,0.0097,0.0031,-0.0032,-0.0045,-0.008,-0.0077,-0.0102,-0.0144,-0.0144,-0.0265,-0.0245,-0.0259,-0.0281,-0.0382,-0.0385,-0.0389,-0.0398,-0.0404,-0.0409,0,0,0,0,0,0,0.0129,0.0097,0.0097,0.0073,0.0028,-0.0038,-0.006,-0.0082,-0.0137,-0.0135,-0.0173,-0.0186,-0.025,-0.0267,-0.0243,-0.0337,-0.032,-0.0326,-0.0322,-0.0328,-0.0332,-0.0327,-0.024,0,0,0,0,0,0.0138,0.0128,0.0082,0.0062,0.0045,-0.0005,-0.0033,-0.006,-0.0112,-0.0135,-0.0178,-0.0223,-0.0277,-0.0301,-0.0352,-0.0405,-0.0407,-0.0426,-0.043,-0.0434,-0.044,-0.0466,-0.0473,-0.0401,-0.0401,-0.0401,0,0,0.0135,0.0119,0.011,0.0065,0.0032,-0.0016,-0.0021,-0.0067,-0.0114,-0.0137,-0.021,-0.0247,-0.0298,-0.0363,-0.039,-0.0375,-0.0454,-0.0438,-0.044,-0.0445,-0.047,-0.0477,-0.0483,-0.0404,-0.0403,-0.0403,0,0,0.0115,0.0113,0.0094,0.0057,0.0014,-0.0023,-0.0033,-0.01,-0.013,-0.0201,-0.0232,-0.0283,-0.0359,-0.0405,-0.0435,-0.0496,-0.0483,-0.0502,-0.0515,-0.0541,-0.0546,-0.0551,-0.055,-0.0555,-0.0495,-0.0495,-0.0495,0,0.0112,0.0085,0.0074,0.0038,0.0004,-0.0025,-0.0073,-0.0117,-0.0199,-0.0229,-0.0222,-0.0346,-0.0384,-0.0468,-0.0487,-0.0506,-0.0503,-0.0487,-0.0544,-0.055,-0.0554,-0.0552,-0.0557,-0.0496,-0.0496,-0.0496,-0.0496,0,0.0071,0.0047,0.0029,-0.0017,-0.0058,-0.0104,-0.0158,-0.0199,-0.0225,-0.027,-0.0349,-0.0404,-0.0465,-0.0489,-0.0508,-0.0568,-0.0549,-0.055,-0.0524,-0.0562,-0.0557,-0.0562,-0.0498,-0.0498,-0.0497,-0.0497,0,0,0.0063,0.0012,0.0008,-0.002,-0.009,-0.0131,-0.0196,-0.0269,-0.0303,-0.0366,-0.0421,-0.051,-0.0511,-0.0546,-0.0572,-0.0599,-0.0627,-0.0582,-0.0583,-0.0569,-0.0659,-0.06,-0.06,-0.0629,-0.0631,-0.0632,-0.0636,0,0.003,-0.0022,-0.0051,-0.0124,-0.0163,-0.0207,-0.0265,-0.0329,-0.0372,-0.0429,-0.0479,-0.053,-0.054,-0.055,-0.0588,-0.063,-0.0643,-0.0624,-0.0636,-0.0636,-0.057,-0.0605,-0.0636,-0.064,-0.0641,-0.0642,-0.0642,0,-0.0005,-0.0034,-0.0085,-0.0164,-0.0185,-0.0215,-0.0291,-0.0348,-0.0425,-0.0456,-0.0507,-0.0543,-0.0607,-0.0589,-0.0666,-0.0648,-0.065,-0.067,-0.0671,-0.0616,-0.0587,-0.06,-0.0651,-0.0651,-0.065,-0.0649,-0.0649,0,0.0006,-0.0069,-0.0097,-0.0125,-0.0209,-0.022,-0.0254,-0.033,-0.0369,-0.0436,-0.0464,-0.0553,-0.0576,-0.0619,-0.0656,-0.0655,-0.0722,-0.0724,-0.0672,-0.0667,-0.071,-0.0705,-0.0757,-0.0757,-0.0757,-0.0757,-0.0757,0,-0.0024,-0.0061,-0.0069,-0.0089,-0.0108,-0.0176,-0.0196,-0.0249,-0.0315,-0.0377,-0.0439,-0.0492,-0.0582,-0.0636,-0.0663,-0.068,-0.0718,-0.0681,-0.0672,-0.0714,-0.071,-0.0712,-0.0707,-0.0757,-0.0757,-0.0757,-0.0757,0,-0.003,-0.0037,-0.0073,-0.0106,-0.0092,-0.0096,-0.0116,-0.0159,-0.0211,-0.0289,-0.0304,-0.0436,-0.0497,-0.057,-0.0645,-0.0669,-0.0699,-0.0682,-0.0707,-0.0698,-0.0624,-0.062,-0.0642,-0.064,-0.0638,-0.0637,-0.0636,0,-0.005,-0.0052,-0.0038,-0.0002,0.0005,0.0016,0.0008,-0.0069,-0.0139,-0.0261,-0.0328,-0.0387,-0.0469,-0.0512,-0.0597,-0.0631,-0.0627,-0.0647,-0.066,-0.0627,-0.0617,-0.0615,-0.0613,-0.0633,-0.0633,-0.0632,-0.0632,0,-0.0098,-0.0062,-0.0075,0.0041,0.0075,0.0042,0.0016,-0.0017,-0.0158,-0.0196,-0.03,-0.0346,-0.0416,-0.0482,-0.0494,-0.0532,-0.0653,-0.0631,-0.0635,-0.0647,-0.0617,-0.0608,-0.0608,-0.0626,-0.0627,-0.0628,-0.0628,0,-0.0115,-0.0113,-0.0054,0.0045,0.012,0.0077,0.0027,-0.0053,-0.0116,-0.0261,-0.0281,-0.0347,-0.04,-0.0429,-0.0461,-0.0474,-0.0484,-0.0507,-0.0517,-0.0524,-0.0492,-0.0438,-0.0389,0,0,0,0,0,-0.012,-0.0104,-0.0047,0.0004,0.0094,0.0138,0.0035,-0.0057,-0.0162,-0.0212,-0.0244,-0.0292,-0.0334,-0.0374,-0.0366,-0.0455,-0.0512,-0.0454,-0.0549,-0.0596,-0.0602,-0.058,0,0,0,0,0,0,-0.0144,-0.0096,-0.0076,0.0014,0.0097,0.0086,0.0057,-0.008,-0.0127,-0.019,-0.0196,-0.0237,-0.0268,-0.0268,-0.0322,-0.0342,-0.0401,-0.0479,-0.0479,-0.0592,-0.0598,-0.0603,-0.0583,0,0,0,0,0]}]]